Location: Chircca
(13.7944°S, 72.0608°W)
Time: 06:01:11
(UTC+00:00)

Delta 198 - Pass Details

Date: 14 July 2020
Orbit: 458 x 1019 km, 24.8° (Epoch: 14 August)

Event Time Altitude Azimuth Distance (km) Brightness Sun altitude
Exits shadow 09:50:09 17° 312° (NW) 1,763 5.6 -19.7°
Maximum altitude 09:53:56 52° 23° (NNE) 808 4.3 -18.8°
Drops below altitude 10° 09:58:14 10° 100° (E) 1,894 7.0 -17.8°
Sets 10:00:24 0° 105° (ESE) 2,717 7.8 -17.3°
